• MPC Preparation (Info)

  • MPEC 2022-K96 : 2022 KK2

    The following Minor Planet Electronic Circular may be linked-to from your own Web pages, but must not otherwise be redistributed electronically.

    A form allowing access to any MPEC is at the bottom of this page.


    Read MPEC 2022-K95 Read MPEC 2022-K97


    M.P.E.C. 2022-K96                                  Issued 2022 May 25, 14:50 UT
    
         The Minor Planet Electronic Circulars contain information on unusual
             minor planets and routine data on comets.  They are published
        on behalf of Division F of the International Astronomical Union by the
              Minor Planet Center, Smithsonian Astrophysical Observatory,
                              Cambridge, MA 02138, U.S.A.
    
                 Prepared using the Tamkin Foundation Computer Network
    
                                  MPC@CFA.HARVARD.EDU
                URL https://www.minorplanetcenter.net/    ISSN 1523-6714
    
                                    2022 KK2                                 
    
    
    Observations:
         K22K02K  C2022 05 21.38825015 51 45.462-24 32 09.73         20.35wUEK096F52
         K22K02K  C2022 05 21.39918615 51 28.376-24 31 59.05         19.60wUEK096F52
         K22K02K  C2022 05 21.41006615 51 11.561-24 31 47.63         19.96wUEK096F52
         K22K02K* C2022 05 22.41779315 36 52.665-24 15 17.16         21.54wUEK096F52
         K22K02K  C2022 05 22.42923315 36 44.812-24 15 09.00         20.54wUEK096F52
         K22K02K  C2022 05 22.44068315 36 36.867-24 14 58.98         20.66wUEK096F52
         K22K02K  C2022 05 22.50038115 35 57.167-24 14 00.13         20.95GVEK096F52
         K22K02K  C2022 05 22.50101115 35 56.760-24 13 59.47         20.72GVEK096F52
         K22K02K |C2022 05 23.07350 15 32 10.46 -24 04 15.0          21.0 GVEK096807
         K22K02K |C2022 05 23.08134 15 32 06.89 -24 04 14.1          21.2 GVEK096807
         K22K02K |C2022 05 23.08918 15 32 03.30 -24 04 13.2          21.5 GVEK096807
         K22K02K  C2022 05 23.25244 15 31 01.50 -24 07 19.8          21.5 GVEK096I52
         K22K02K ^C2022 05 23.31000015 30 50.001-24 05 57.26         21.30GVEK096568
    
    Observer details:
    568 Mauna Kea.  Observers R. Wainscoat, L. Wells, H. Flewelling.  Measurers R.
        Weryk, R. Wainscoat.  3.6-m Canada-France-Hawaii Telescope + CCD.
    807 Cerro Tololo Observatory, La Serena.  Observers T. Linder, R. Holmes, L.
        Horn.  1.00-m f/10.0 astrograph + CCD.
    F52 Pan-STARRS 2, Haleakala.  Observers J. Bulger, T. Lowe, A. Schultz, I.
        Smith, K. Chambers, T. Dukes.  Measurers K. Chambers, S. Chastel, T. de
        Boer, J. Fairlamb, H. Gao, M. Huber, C.-C. Lin, E. Magnier, Y.
        Ramanjooloo, R. Wainscoat, R. Weryk.  1.8-m Ritchey-Chretien + CCD.
    I52 Steward Observatory, Mt. Lemmon Station.  Observer H. Groeller.  Measurers
        E. J. Christensen, B. Gray, D. Rankin, F. C. Shelly.  1.0-m f/2.0 prime
        focus + CCD.
    
    Orbital elements:
    2022 KK2                                                 Earth MOID = 0.0005 AU
    Epoch 2022 Jan. 21.0 TT = JDT 2459600.5                 Veres                   
    M 315.75611              (2000.0)            P               Q                  
    n   0.73996414     Peri.   76.20062     -0.70688131     -0.70586151             
    a   1.2105859      Node    58.87675     +0.62665563     -0.65484651             
    e   0.5128497      Incl.    3.05270     +0.32805722     -0.27006587             
    P   1.33           H   28.42          G   0.15           U   7                  
    Residuals in seconds of arc
    220521 F52  0.0   0.0     220522 F52  0.1-  0.2+    220523 807  0.1-  0.0
    220521 F52  0.1-  0.0     220522 F52  0.2+  0.1+    220523 I52  0.7+  0.3+
    220521 F52  0.2+  0.0     220522 F52  0.2+  0.0     220523 568  0.0   0.0
    220522 F52 (1.1-  0.3+)   220523 807  0.1-  0.1+
    220522 F52  0.5+  0.4-    220523 807  0.0   0.2+
    
    Ephemeris:
    2022 KK2                 a,e,i = 1.21, 0.51, 3                   q = 0.5897
    Date    TT    R. A. (2000) Decl.     Delta      r    Elong.  Phase     V
    2022 04 25    03 08 19.4 +22 47 51   0.2346  0.7848    17.2   157.8    35.0
    ...
    2022 05 10    03 05 47.4 +23 18 25   0.08648 0.9236     5.8   173.6
    ...
    2022 05 18    02 27 33.0 +21 50 49   0.01438 0.9976    16.6   163.2    31.4
    ...
    2022 05 24    15 27 34.5 -23 58 49   0.03964 1.0518   171.4     8.3    22.1
    2022 05 25    15 24 30.7 -23 54 01   0.04861 1.0607   170.0     9.6    22.6
    2022 05 26    15 22 25.7 -23 50 28   0.05762 1.0695   168.7    10.7    23.0
    ...
    2022 06 01    15 17 34.0 -23 39 32   0.1124  1.1215   162.2    16.0    24.8
    ...
    2022 06 09    15 17 30.2 -23 34 54   0.1883  1.1881   154.8    21.3    26.2
    ...
    2022 06 24    15 24 13.6 -23 40 15   0.3419  1.3037   142.2    28.5    27.9
    
    M. P. C. Staff               (C) Copyright 2022 MPC           M.P.E.C. 2022-K96
    


    Read MPEC 2022-K95 Read MPEC 2022-K97


    MPEC number:

    Enter an MPEC number in one of the following forms:

    • 1997-B01 (the full form)
    • J97B01 (the packed version of the full form)
    • B01 (the abbreviated form)